Voltar ao catálogo

USA 234

AtivoMilitarLEO
NORAD 38109·PAYLOAD·🇺🇸 United States

Lançado Apr 3, 2012 de Vandenberg Space Force Base

Loading…

Próximas Passagens (próximas 24 horas)

TLE

EnvelhecendoSource: Mike McCants

Época: Sep 9, 2026, 18:44 UTC

1 38109U 12014A   26252.78095032 0.00000000  00000-0  00000-0 0    03
2 38109 122.9977  18.4288 0003745  90.5609 269.3753 13.41439983    09

Acompanhe USA 234 em tempo real com AllMySat

Download on the App Store